Theta_e
322 328 332 340 344 345 346 348 347 346 346 346 347 347 348 348 348 348 349 348 348 349 349 349 348 348 347 346 346 347 347 347 349 349 354 355 355 354 354 356 354 352 355
320 326 331 337 341 342 343 345 345 346 346 346 346 346 347 347 348 348 349 348 347 347 349 349 349 349 348 347 346 346 347 349 350 349 352 353 354 354 353 355 354 352 355
320 322 329 333 334 336 337 339 340 342 343 344 343 343 343 343 344 345 344 345 346 346 347 347 348 348 350 349 349 348 348 350 350 348 348 351 349 354 353 355 355 354 354
316 320 325 329 329 329 331 333 335 336 336 337 338 340 340 340 340 340 340 340 341 343 345 346 346 347 349 349 348 348 350 349 349 346 338 345 348 353 352 354 354 355 354
314 318 321 324 325 325 325 327 329 329 330 332 333 334 334 335 334 334 335 336 337 339 341 343 344 344 345 345 346 346 348 349 348 345 342 341 347 350 351 352 353 354 352
309 315 317 319 322 322 321 322 323 322 323 324 325 326 329 325 323 325 328 329 329 331 333 336 338 338 340 342 343 344 346 348 346 342 345 343 343 350 351 353 353 352 349
304 310 313 315 316 317 318 317 317 317 317 317 317 320 320 316 317 318 320 321 323 324 326 330 332 332 333 337 340 342 345 345 342 340 341 343 345 348 350 351 353 353 353
302 304 307 309 311 312 313 313 313 313 313 313 312 313 313 312 312 313 315 316 317 318 319 323 326 325 326 330 333 335 336 338 338 338 339 341 343 346 346 349 352 352 352
301 301 303 303 304 307 307 308 308 309 309 310 309 308 308 308 308 309 309 312 313 313 314 318 317 318 319 319 320 322 322 329 337 337 338 338 339 344 346 345 351 351 352
299 299 300 302 302 303 304 304 305 306 306 306 306 305 304 304 304 304 305 307 310 310 311 313 313 313 312 312 313 314 314 320 335 336 336 337 339 342 343 344 348 350 351
298 298 300 300 301 301 301 299 302 302 302 302 302 302 304 304 303 303 302 303 306 306 307 309 309 309 309 310 309 310 312 323 325 332 336 334 339 341 342 342 346 348 349
297 297 298 299 299 300 298 300 301 300 301 301 302 302 302 302 301 301 302 301 302 302 304 306 306 305 306 306 307 310 308 311 313 321 329 333 337 339 341 342 344 346 348
297 296 297 298 299 300 299 301 301 301 301 301 301 301 301 301 301 300 300 300 301 301 301 302 303 303 304 305 305 306 306 307 308 312 319 326 330 336 338 340 343 345 346
295 296 296 297 298 299 299 299 300 300 300 300 299 300 299 299 298 298 298 299 299 300 299 300 300 302 303 304 304 305 305 305 306 307 310 315 322 328 332 336 339 343 345
295 295 296 297 297 297 298 298 299 299 299 298 298 298 297 297 296 296 297 297 297 298 297 297 298 299 301 302 303 304 304 304 305 306 307 309 312 314 326 332 336 339 343
295 295 296 296 297 297 297 297 298 298 297 297 297 296 295 295 294 294 295 295 295 295 295 296 296 297 298 300 301 302 302 303 304 305 305 307 311 312 313 325 333 336 339
295 295 295 295 296 296 296 296 297 296 296 295 295 295 293 292 292 292 293 293 293 294 294 295 295 296 296 297 298 299 300 302 303 303 304 305 307 309 311 312 320 332 335
294 294 295 294 295 295 295 295 295 295 295 295 294 295 293 291 291 291 291 292 292 292 293 293 293 293 294 294 295 296 297 299 301 302 304 305 305 306 309 312 317 324 331
294 294 293 294 294 294 294 293 293 293 294 294 294 293 291 290 290 290 290 291 291 290 291 291 291 292 292 293 294 295 296 297 299 300 302 302 303 305 306 308 310 311 325
293 294 293 293 294 293 293 292 292 293 293 293 292 292 290 290 289 289 289 289 290 289 290 290 290 291 291 292 292 291 294 297 299 299 299 300 302 303 305 305 309 308 313
292 292 292 292 292 292 292 291 291 291 291 291 291 289 289 288 288 288 288 288 289 288 288 288 289 289 290 290 289 292 293 296 297 299 300 301 302 303 304 306 308 310 312
291 291 291 291 292 291 291 290 290 289 290 289 290 289 289 287 287 286 286 287 287 287 287 288 288 288 288 290 287 287 288 291 298 296 296 297 300 302 304 305 307 310 312
290 291 291 291 291 290 290 288 287 287 287 287 288 288 288 287 286 286 286 286 286 287 286 286 287 286 284 287 288 287 285 285 289 293 294 295 296 299 302 303 305 309 313
290 292 291 290 289 289 289 287 287 286 286 287 286 286 286 286 285 285 285 285 285 286 285 286 285 285 285 283 286 287 288 287 284 285 291 293 294 295 298 301 303 304 306
291 291 290 290 289 288 288 287 287 285 286 286 284 284 285 285 285 284 284 284 284 285 285 285 284 284 285 283 283 284 285 285 287 285 283 286 291 294 296 297 301 303 304
290 290 290 289 287 287 287 287 286 285 284 283 283 282 283 283 283 283 283 283 283 283 283 284 284 283 283 283 283 283 282 283 283 283 283 284 285 288 291 295 297 303 304
Wind_Speed
5 9 14 11 12 14 14 12 7 6 6 7 8 9 10 8 8 8 7 6 7 8 8 8 7 7 8 8 9 10 10 11 11 12 12 10 10 11 11 7 8 10 6
4 8 11 11 13 14 14 13 14 14 13 13 13 14 14 14 13 11 11 8 7 9 10 10 10 9 6 6 7 8 10 9 9 10 10 11 11 11 10 6 8 11 7
4 6 8 11 10 11 12 12 12 13 13 13 13 13 13 13 14 16 14 14 12 9 10 11 11 12 10 7 8 9 9 8 8 9 10 9 11 4 9 7 10 12 12
4 5 8 9 10 11 12 12 12 13 12 12 12 12 13 15 15 13 12 11 12 12 11 11 11 12 12 11 11 11 12 9 8 10 9 9 9 4 9 11 11 13 13
5 5 9 9 10 11 12 13 14 14 14 14 14 12 12 11 13 12 13 12 14 13 12 12 12 13 12 12 12 11 11 10 9 10 9 9 8 9 8 13 13 12 11
6 6 8 9 10 11 11 12 13 14 15 15 15 14 16 15 13 13 15 15 14 13 12 12 13 13 13 12 11 11 10 10 9 12 10 9 10 10 12 14 11 11 8
7 6 7 9 9 9 11 12 12 13 14 15 14 13 15 15 15 14 14 13 14 15 16 15 14 13 14 14 12 13 12 8 10 11 11 11 10 8 13 15 14 12 12
7 5 5 7 9 10 11 11 12 12 13 13 14 14 13 14 14 14 14 15 15 14 14 13 14 16 16 15 14 14 13 10 11 12 11 10 10 11 15 16 15 14 14
6 6 5 6 8 10 11 11 11 11 11 11 12 12 11 12 13 13 12 13 13 13 14 12 13 13 13 14 15 16 16 12 10 10 11 9 7 11 16 17 16 16 15
7 6 6 6 6 6 6 9 10 10 11 11 11 10 9 8 9 11 13 14 14 14 14 13 13 14 14 13 12 14 16 18 12 11 10 9 8 15 18 18 17 17 17
7 6 6 6 6 6 6 5 7 9 10 9 7 9 5 6 8 9 10 13 13 13 13 14 14 14 14 10 10 12 14 7 9 9 8 7 8 16 19 20 18 18 18
11 8 6 6 6 5 4 5 5 5 5 6 7 7 5 6 7 8 7 12 12 14 11 12 12 13 10 8 7 8 5 8 9 9 9 11 13 18 20 21 19 19 18
11 8 8 7 6 6 4 3 2 2 3 4 7 6 6 4 5 5 4 5 7 9 7 9 8 6 9 8 8 8 9 9 7 8 11 10 15 19 21 23 22 21 20
14 11 9 8 7 6 4 3 4 3 3 3 4 6 4 3 5 6 5 7 7 6 9 8 6 8 9 10 11 11 11 9 7 7 11 11 16 21 22 23 25 24 23
15 13 11 9 8 7 6 4 4 3 3 3 4 6 5 5 5 5 6 6 6 7 7 8 8 9 9 10 10 11 12 13 12 8 8 13 17 22 24 25 26 27 27
15 14 12 11 8 8 6 5 4 3 4 3 4 4 6 5 5 5 6 6 7 8 8 8 9 9 9 10 11 12 13 12 14 14 11 11 16 20 24 24 27 28 29
16 15 14 12 10 9 7 5 4 3 3 3 3 4 4 5 5 7 6 7 7 8 10 9 9 9 9 9 12 12 12 13 12 14 13 11 14 16 19 25 26 29 29
17 17 14 10 11 9 6 4 3 3 2 2 2 1 3 5 6 6 6 6 7 8 8 8 9 10 10 10 11 11 11 13 15 15 14 12 12 12 12 19 24 26 30
18 17 14 11 11 9 7 4 4 4 2 1 0 1 4 5 6 6 6 6 7 7 7 7 8 9 10 11 12 13 13 13 15 13 17 17 17 15 12 17 20 23 24
18 16 15 12 12 11 7 5 4 3 2 1 2 2 3 4 5 6 6 7 7 7 7 7 9 9 11 11 13 15 13 13 13 13 15 14 14 16 16 17 13 13 24
18 17 16 15 13 9 7 5 4 4 3 2 3 4 5 5 6 6 6 7 7 7 8 9 9 11 8 10 12 12 12 15 12 11 10 10 13 13 15 15 11 11 11
20 18 17 16 14 10 6 4 2 2 1 3 4 6 6 5 6 6 7 8 8 7 8 8 9 8 8 5 8 11 10 13 3 11 13 13 16 13 14 16 17 16 14
21 21 18 17 14 11 9 6 4 2 3 4 6 4 4 6 6 7 8 9 8 7 7 8 8 9 8 8 7 6 7 8 17 6 13 13 15 12 13 15 19 17 15
22 19 19 16 14 11 11 7 8 6 6 4 3 5 6 7 8 8 9 9 8 7 9 8 7 8 9 10 7 8 11 11 7 16 8 13 15 17 17 14 15 17 18
19 18 18 16 15 13 12 10 8 9 5 4 5 8 8 9 9 8 9 9 10 8 9 10 11 11 10 10 10 10 11 11 14 12 20 15 13 13 14 17 16 15 18
18 18 18 18 16 15 14 14 13 10 8 7 7 5 6 7 7 9 9 10 10 10 10 10 11 13 13 13 12 12 12 10 10 12 14 22 20 15 14 15 17 15 15
Wind_Direction
39 0 355 3 21 35 45 46 44 25 13 5 1 1 0 0 356 348 344 346 343 342 337 339 344 341 338 333 329 325 324 327 327 329 314 291 281 275 276 255 235 236 224
4 15 350 24 38 44 42 47 57 62 61 58 53 49 43 35 26 13 4 351 341 337 333 336 329 329 323 311 309 310 313 316 315 321 314 293 261 275 275 261 230 250 207
55 20 43 40 39 48 51 53 55 56 54 53 53 51 44 42 37 34 32 30 19 354 336 333 329 330 336 325 300 294 294 296 304 312 316 283 278 203 274 267 250 239 243
71 33 57 41 55 56 51 51 56 60 59 57 54 48 51 51 46 40 33 26 23 15 1 343 334 328 335 336 331 328 315 289 297 309 294 290 287 263 272 277 264 248 236
94 48 58 47 57 57 56 58 60 55 55 55 55 52 52 53 45 35 37 35 31 21 16 8 3 353 342 334 328 322 315 306 295 289 295 289 281 281 270 275 271 244 234
90 65 65 55 59 59 58 58 56 53 52 53 53 50 56 47 41 37 37 31 27 22 14 6 4 359 355 344 329 318 312 311 306 294 290 286 276 281 278 272 273 274 235
96 75 67 57 61 62 62 61 61 61 56 54 52 50 51 43 39 36 31 28 22 14 8 6 5 1 354 351 348 335 312 295 296 297 292 286 282 295 277 275 274 265 245
111 95 97 64 64 68 65 63 62 63 63 60 54 51 48 43 36 31 24 21 15 9 6 5 4 359 358 353 347 346 349 322 296 287 287 285 291 294 285 280 274 267 254
125 131 121 104 94 78 68 67 65 69 70 67 63 55 48 46 38 32 27 19 15 7 360 1 357 353 351 346 343 344 342 331 294 278 279 277 277 280 285 284 278 267 257
145 139 123 121 112 97 90 69 74 77 78 72 61 52 43 41 33 29 18 15 10 8 360 354 347 344 339 333 338 340 334 305 270 273 265 266 278 278 281 282 279 276 263
159 152 145 137 133 128 113 95 93 78 74 71 62 45 47 27 19 12 16 6 7 2 358 354 348 339 332 313 323 334 313 312 313 295 282 274 271 272 273 277 277 273 266
175 165 157 158 145 139 123 112 93 82 64 59 50 42 32 23 16 358 359 353 354 357 350 349 346 333 327 330 320 314 313 307 292 288 282 319 298 278 274 273 270 272 265
177 170 171 167 159 150 138 140 123 97 85 66 52 40 32 23 12 8 352 352 351 356 351 345 339 340 332 321 318 309 307 299 293 286 278 285 286 285 281 275 271 268 267
179 175 174 173 165 150 155 149 141 125 102 87 68 45 29 24 14 6 1 351 349 347 338 335 330 324 319 313 308 304 300 297 290 290 285 280 284 278 269 274 274 269 265
185 177 177 176 172 161 166 161 139 119 95 80 68 50 25 20 12 356 350 344 339 337 335 328 328 327 322 314 306 301 300 298 291 286 285 285 283 285 281 267 266 268 267
186 182 173 177 177 171 168 155 134 117 101 81 67 48 33 10 360 346 345 340 336 341 334 324 326 323 315 313 307 302 296 289 288 285 283 283 276 275 274 275 267 263 263
186 179 183 177 175 175 164 140 133 121 113 91 69 55 30 3 351 346 337 333 337 332 321 320 322 318 315 310 303 302 297 292 286 287 285 281 282 270 262 266 266 265 260
187 185 179 177 176 170 153 136 146 149 112 99 73 4 353 354 349 339 330 321 328 316 319 320 324 322 314 310 305 302 298 294 290 283 279 277 275 277 276 270 265 259 260
186 184 183 181 177 168 163 162 176 177 172 103 42 319 350 337 330 320 306 303 314 310 311 315 315 313 311 310 306 302 295 290 287 283 278 277 276 273 273 270 263 270 265
188 185 181 181 180 177 172 173 180 175 189 222 226 258 277 289 291 299 305 306 302 298 302 312 308 310 305 305 306 299 290 285 276 275 277 279 275 274 277 275 274 261 250
189 187 189 185 185 181 183 186 189 187 188 240 215 252 254 284 291 297 294 295 290 294 310 311 307 308 309 315 307 313 296 277 268 265 277 284 285 277 274 279 275 272 268
189 191 192 192 186 191 185 171 165 166 227 267 260 251 252 288 284 292 298 295 290 292 299 308 315 306 301 307 315 298 318 308 179 327 294 284 287 294 283 283 280 280 275
194 193 193 193 189 186 176 158 154 194 247 239 231 240 261 269 288 285 278 279 290 301 299 294 294 296 293 296 289 286 309 300 328 302 316 289 289 290 284 285 279 286 284
196 192 193 189 185 182 177 182 199 215 226 222 269 270 282 292 293 281 283 286 294 286 279 281 283 282 284 278 285 239 250 282 298 311 295 301 298 280 278 277 278 280 275
191 189 189 186 183 178 183 192 197 217 237 268 282 287 288 290 282 287 283 285 279 274 278 280 281 275 271 273 270 272 274 263 261 270 290 292 284 280 283 267 265 267 267
192 191 186 186 186 183 184 192 202 212 218 230 240 260 266 272 289 277 269 272 277 282 280 284 283 278 278 274 273 270 265 260 264 266 267 288 285 285 281 279 282 278 268